| time (UTC) | temp F | wind direction | speed MPH | gust MPH | rain 1hr in | rain 24hr in | rain mn in | humidity % | barometer mb |
| 20260903200053 | 73 | 18 | 1.0 | 7.0 | 0.00 | 1.29 | 0.79 | 79 | 1013.4 |
| 20260903194543 | 73 | 19 | 0.0 | 0.0 | 0.00 | 1.29 | 0.79 | 78 | 1011.7 |
| 20260903193040 | 73 | 19 | 0.0 | 0.0 | 0.00 | 1.29 | 0.79 | 78 | 1012.5 |
| 20260903191537 | 74 | 162 | 0.0 | 0.0 | 0.00 | 1.29 | 0.79 | 78 | 1012.5 |
| 20260903190036 | 75 | 206 | 0.0 | 0.0 | 0.00 | 1.29 | 0.79 | 78 | 1012.9 |
| 20260903184532 | 76 | 288 | 0.0 | 1.0 | 0.00 | 1.29 | 0.79 | 78 | 1012.7 |
| 20260903183030 | 76 | 219 | 0.0 | 1.0 | 0.00 | 1.29 | 0.79 | 78 | 1013.1 |
| 20260903181528 | 76 | 105 | 1.0 | 3.0 | 0.00 | 1.29 | 0.79 | 78 | 1012.9 |
| 20260903180034 | 75 | 152 | 0.0 | 1.0 | 0.05 | 1.29 | 0.79 | 78 | 1012.6 |
| 20260903174524 | 73 | 198 | 0.0 | 3.0 | 0.19 | 1.29 | 0.79 | 78 | 1012.6 |
| 20260903173021 | 71 | 169 | 0.0 | 3.0 | 0.21 | 1.29 | 0.79 | 77 | 1012.5 |
| 20260903171520 | 70 | 163 | 0.0 | 0.0 | 0.22 | 1.29 | 0.79 | 77 | 1012.8 |
| 20260903170022 | 69 | 91 | 0.0 | 4.0 | 0.17 | 1.24 | 0.74 | 77 | 1013.5 |
| 20260903164516 | 69 | 287 | 0.0 | 0.0 | 0.18 | 1.10 | 0.60 | 77 | 1013.8 |
| 20260903163014 | 69 | 200 | 0.0 | 3.0 | 0.16 | 1.08 | 0.57 | 77 | 1014.7 |
| 20260903161511 | 70 | 345 | 2.0 | 6.0 | 0.15 | 1.07 | 0.56 | 77 | 1014.6 |
| 20260903160023 | 72 | 278 | 3.0 | 17.0 | 0.15 | 1.07 | 0.56 | 77 | 1015.8 |
| 20260903154504 | 80 | 263 | 0.0 | 0.0 | 0.00 | 0.92 | 0.42 | 78 | 1014.9 |
| 20260903153100 | 81 | 341 | 0.0 | 1.0 | 0.00 | 0.92 | 0.42 | 78 | 1014.4 |
| 20260903151559 | 81 | 264 | 0.0 | 1.0 | 0.00 | 0.92 | 0.42 | 77 | 1013.6 |
| 20260903150106 | 82 | 155 | 0.0 | 0.0 | 0.00 | 0.92 | 0.42 | 77 | 1013.1 |
| 20260903144559 | 83 | 309 | 0.0 | 2.0 | 0.00 | 0.92 | 0.42 | 77 | 1013.1 |
| 20260903143049 | 83 | 337 | 0.0 | 0.0 | 0.00 | 0.92 | 0.42 | 77 | 1013.3 |
| 20260903141544 | 80 | 236 | 0.0 | 0.0 | 0.00 | 0.92 | 0.42 | 76 | 1013.1 |
| 20260903140038 | 78 | 146 | 0.0 | 0.0 | 0.00 | 0.92 | 0.42 | 76 | 1013.0 |
| 20260903134533 | 76 | 297 | 0.0 | 0.0 | 0.00 | 0.92 | 0.42 | 76 | 1013.2 |
| 20260903133027 | 75 | 341 | 0.0 | 0.0 | 0.00 | 0.92 | 0.42 | 75 | 1013.4 |
| 20260903131521 | 74 | 132 | 0.0 | 2.0 | 0.00 | 0.92 | 0.42 | 75 | 1013.3 |
| 20260903130017 | 73 | 243 | 0.0 | 2.0 | 0.00 | 0.92 | 0.42 | 75 | 1013.4 |
| 20260903124613 | 72 | 224 | 0.0 | 1.0 | 0.00 | 0.92 | 0.42 | 74 | 1013.6 |
| 20260903123010 | 72 | 229 | 0.0 | 0.0 | 0.00 | 0.92 | 0.42 | 74 | 1013.7 |
| 20260903121507 | 71 | 229 | 0.0 | 0.0 | 0.00 | 0.92 | 0.42 | 74 | 1013.8 |
| 20260903120005 | 70 | 229 | 0.0 | 0.0 | 0.00 | 0.92 | 0.42 | 74 | 1013.7 |
| 20260903114503 | 69 | 229 | 0.0 | 0.0 | 0.00 | 0.92 | 0.42 | 74 | 1013.5 |
| 20260903113100 | 69 | 229 | 0.0 | 0.0 | 0.00 | 0.92 | 0.42 | 73 | 1013.4 |
| 20260903111558 | 69 | 229 | 0.0 | 0.0 | 0.00 | 0.92 | 0.42 | 73 | 1013.5 |
| 20260903110055 | 69 | 229 | 0.0 | 0.0 | 0.00 | 0.92 | 0.42 | 73 | 1013.3 |
| 20260903104553 | 69 | 229 | 0.0 | 0.0 | 0.00 | 0.92 | 0.42 | 73 | 1013.2 |
| 20260903103050 | 69 | 229 | 0.0 | 0.0 | 0.00 | 0.92 | 0.42 | 73 | 1013.1 |
| 20260903101553 | 70 | 229 | 0.0 | 0.0 | 0.00 | 0.92 | 0.42 | 73 | 1013.0 |
| 20260903100047 | 69 | 229 | 0.0 | 0.0 | 0.00 | 0.92 | 0.42 | 73 | 1013.1 |
| 20260903094544 | 69 | 229 | 0.0 | 0.0 | 0.00 | 0.92 | 0.42 | 73 | 1012.9 |
| 20260903093056 | 69 | 229 | 0.0 | 1.0 | 0.00 | 0.92 | 0.42 | 73 | 1012.9 |
| 20260903091537 | 69 | 194 | 0.0 | 0.0 | 0.00 | 0.92 | 0.42 | 72 | 1012.7 |
| 20260903090037 | 69 | 232 | 0.0 | 2.0 | 0.00 | 0.92 | 0.42 | 72 | 1012.7 |
| 20260903084536 | 70 | 146 | 0.0 | 1.0 | 0.04 | 0.92 | 0.42 | 72 | 1012.5 |
| 20260903083032 | 70 | 176 | 0.0 | 1.0 | 0.08 | 0.92 | 0.42 | 72 | 1012.6 |
| 20260903081532 | 70 | 290 | 0.0 | 1.0 | 0.08 | 0.92 | 0.42 | 72 | 1012.5 |
| 20260903080032 | 70 | 298 | 0.0 | 1.0 | 0.15 | 0.92 | 0.42 | 72 | 1012.4 |
| 20260903074525 | 70 | 183 | 0.0 | 3.0 | 0.10 | 0.87 | 0.37 | 72 | 1012.7 |
| 20260903073030 | 70 | 191 | 1.0 | 2.0 | 0.28 | 0.84 | 0.34 | 72 | 1012.6 |
| 20260903071532 | 70 | 221 | 0.0 | 1.0 | 0.28 | 0.84 | 0.34 | 72 | 1012.1 |
| 20260903070017 | 69 | 162 | 0.0 | 3.0 | 0.22 | 0.77 | 0.27 | 72 | 1012.5 |
| 20260903064514 | 69 | 181 | 1.0 | 6.0 | 0.22 | 0.77 | 0.27 | 72 | 1012.8 |
| 20260903063008 | 72 | 343 | 2.0 | 4.0 | 0.01 | 0.56 | 0.06 | 72 | 1012.6 |
| 20260903061508 | 71 | 248 | 0.0 | 0.0 | 0.00 | 0.55 | 0.05 | 72 | 1012.2 |
| 20260903060008 | 71 | 247 | 0.0 | 0.0 | 0.05 | 0.55 | 0.05 | 72 | 1012.2 |
| 20260903054602 | 71 | 247 | 0.0 | 0.0 | 0.05 | 0.55 | 0.05 | 72 | 1012.4 |
| 20260903053053 | 71 | 257 | 0.0 | 0.0 | 0.05 | 0.55 | 0.05 | 72 | 1012.5 |
| 20260903051550 | 71 | 6 | 0.0 | 2.0 | 0.05 | 0.55 | 0.05 | 72 | 1012.7 |
| 20260903050046 | 71 | 290 | 0.0 | 0.0 | 0.00 | 0.50 | 0.00 | 72 | 1012.8 |
| 20260903044548 | 71 | 345 | 0.0 | 2.0 | 0.01 | 0.50 | 0.00 | 72 | 1012.8 |
| 20260903043041 | 71 | 194 | 0.0 | 0.0 | 0.09 | 0.50 | 0.00 | 72 | 1012.9 |
| 20260903041541 | 71 | 348 | 0.0 | 0.0 | 0.30 | 0.50 | 0.00 | 72 | 1012.5 |
| 20260903040034 | 72 | 339 | 0.0 | 1.0 | 0.49 | 0.50 | 0.00 | 72 | 1013.1 |
| 20260903034537 | 72 | 218 | 0.0 | 4.0 | 0.49 | 0.49 | 0.49 | 72 | 1013.5 |
| 20260903033037 | 74 | 303 | 0.0 | 5.0 | 0.41 | 0.41 | 0.41 | 72 | 1013.4 |
| 20260903031518 | 76 | 198 | 0.0 | 1.0 | 0.16 | 0.16 | 0.16 | 72 | 1013.3 |
| 20260903030014 | 77 | 220 | 0.0 | 3.0 | 0.01 | 0.01 | 0.01 | 73 | 1012.4 |
| 20260903024514 | 78 | 93 | 0.0 | 1.0 | 0.00 | 0.00 | 0.00 | 73 | 1011.1 |
| 20260903023011 | 79 | 13 | 1.0 | 6.0 | 0.00 | 0.00 | 0.00 | 73 | 1011.1 |
| 20260903021508 | 81 | 20 | 2.0 | 6.0 | 0.00 | 0.00 | 0.00 | 73 | 1011.4 |
| 20260903020006 | 83 | 20 | 0.0 | 4.0 | 0.00 | 0.00 | 0.00 | 73 | 1011.4 |
| 20260903014505 | 87 | 330 | 0.0 | 1.0 | 0.00 | 0.00 | 0.00 | 74 | 1011.3 |
| 20260903013003 | 87 | 205 | 0.0 | 2.0 | 0.00 | 0.00 | 0.00 | 74 | 1011.0 |
| 20260903011501 | 88 | 216 | 0.0 | 1.0 | 0.00 | 0.00 | 0.00 | 74 | 1011.0 |
| 20260903004558 | 88 | 319 | 1.0 | 3.0 | 0.00 | 0.00 | 0.00 | 74 | 1010.9 |
| 20260903003059 | 89 | 330 | 0.0 | 1.0 | 0.00 | 0.00 | 0.00 | 75 | 1010.7 |
| 20260903001550 | 90 | 320 | 0.0 | 2.0 | 0.00 | 0.00 | 0.00 | 75 | 1010.6 |
| 20260903000048 | 91 | 269 | 0.0 | 2.0 | 0.00 | 0.00 | 0.00 | 75 | 1010.6 |
| 20260902234554 | 92 | 267 | 0.0 | 3.0 | 0.00 | 0.00 | 0.00 | 75 | 1010.7 |
| 20260902233042 | 92 | 4 | 0.0 | 6.0 | 0.00 | 0.00 | 0.00 | 75 | 1010.7 |
| 20260902231539 | 93 | 281 | 1.0 | 10.0 | 0.00 | 0.00 | 0.00 | 76 | 1010.8 |
| 20260902230040 | 93 | 214 | 1.0 | 9.0 | 0.00 | 0.00 | 0.00 | 76 | 1010.6 |
| 20260902224534 | 93 | 166 | 0.0 | 3.0 | 0.00 | 0.00 | 0.00 | 76 | 1010.2 |
| 20260902223040 | 94 | 128 | 1.0 | 6.0 | 0.00 | 0.00 | 0.00 | 76 | 1010.3 |
| 20260902221528 | 94 | 151 | 1.0 | 8.0 | 0.00 | 0.00 | 0.00 | 76 | 1010.2 |
| 20260902220025 | 95 | 287 | 1.0 | 6.0 | 0.00 | 0.00 | 0.00 | 77 | 1010.1 |
| 20260902214528 | 96 | 56 | 2.0 | 9.0 | 0.00 | 0.00 | 0.00 | 77 | 1010.3 |
| 20260902213028 | 97 | 15 | 1.0 | 7.0 | 0.00 | 0.00 | 0.00 | 77 | 1010.3 |
| 20260902211518 | 96 | 304 | 2.0 | 9.0 | 0.00 | 0.00 | 0.00 | 78 | 1010.2 |
| 20260902210022 | 98 | 202 | 2.0 | 6.0 | 0.00 | 0.00 | 0.00 | 78 | 1010.1 |
| 20260902204507 | 98 | 117 | 1.0 | 9.0 | 0.00 | 0.00 | 0.00 | 78 | 1010.4 |
| 20260902203002 | 99 | 151 | 2.0 | 10.0 | 0.00 | 0.00 | 0.00 | 79 | 1010.5 |
| 20260902201555 | 98 | 283 | 1.0 | 8.0 | 0.00 | 0.00 | 0.00 | 79 | 1010.7 |